Regional Weather Roundup
Issued by NWS Kansas City/Pleasant Hill, MO

Home | Current Version | Previous Version | Text Only | Print | Product List | Glossary On
Versions: 1 2 3 4 5 6 7 8 9 10 11 12 13 14 15 16 17 18 19 20 21 22 23 24 25 26 27 28 29 30 31 32 33 34 35 36 37 38 39 40 41 42 43 44 45 46 47 48 49 50
350
ASUS43 KEAX 301010
RWREAX

WEATHER ROUNDUP FOR EASTERN KANSAS AND NORTHWEST MISSOURI
NATIONAL WEATHER SERVICE KANSAS CITY/PLEASANT HILL MO
500 AM CDT SAT JUL 30 2016

KSZ040-057-103>105-MOZ028-029-037-043-301100-
...KANSAS CITY METROPOLITAN AREA...

CITY           SKY/WX    TMP DP  RH WIND       PRES   REMARKS
K.C. INTL      CLEAR     63  60  90 N7        30.01S
K.C. DOWNTOWN  CLEAR     68  63  84 N5        29.99F
LEES SUMMIT    CLEAR     67  63  87 CALM      30.00F
OLATHE - IXD   PTCLDY    64  63  96 NE3       30.01S
OLATHE - OJC   CLOUDY    67  62  84 N3        30.01S
LAWRENCE       CLOUDY    63  62  97 CALM      30.00S

$$

MOZ001>008-011>017-020>025-030>033-038>040-044>046-053-054-301100-
...NORTHERN AND CENTRAL MISSOURI...

CITY           SKY/WX    TMP DP  RH WIND       PRES   REMARKS
ST. JOSEPH     FOG       62  61  96 NE5       30.01S VSB 1/2
MOSBY          SUNNY     63  63 100 CALM      30.00S
WHITEMAN AFB   CLEAR     65  65 100 N5        29.99R
CLINTON        PTCLDY    64  64 100 CALM      29.99S
SEDALIA        CLEAR     66  63  90 NW6       30.00R
WARSAW         NOT AVBL
CHILLICOTHE      N/A     63  61  93 CALM      30.00S
KIRKSVILLE     CLOUDY    66  64  93 NW3       30.00R

$$

MOZ041-047>049-056>058-063>065-088>090-097-301100-
...EASTERN AND SOUTHERN MISSOURI...

CITY           SKY/WX    TMP DP  RH WIND       PRES   REMARKS
ST. LOUIS INTL PTCLDY    73  67  81 NW3       29.95F
SPIRIT OF STL  PTCLDY    68  68 100 W5        29.94S
COLUMBIA       CLEAR     66  64  93 N5        29.99R
JEFFERSON CITY PTCLDY    67  65  93 CALM      29.97S
ROLLA          CLEAR     66  65  96 CALM      29.97S
OSAGE BEACH    FOG       68  67  96 CALM      30.00R VSB 1
SPRINGFIELD    PTCLDY    70  67  90 CALM      29.99S
BRANSON        CLOUDY    70  70 100 CALM      30.01R
JOPLIN         CLEAR     68  68 100 CALM      29.99S
WEST PLAINS    PTCLDY    68  65  90 CALM      30.01R

$$

IAZ060-094-KSZ022-034>040-054-083-096-NEZ052-066-093-301100-
...KANSAS...SOUTHEAST NEBRASKA AND IOWA...

CITY           SKY/WX    TMP DP  RH WIND       PRES   REMARKS
TOPEKA         CLOUDY    66  63  90 CALM      30.00F
MANHATTAN      CLOUDY    67  65  93 CALM      30.01R
EMPORIA        CLOUDY    67  67 100 CALM      30.01R
CHANUTE        CLEAR     69  68  96 CALM      29.99S
WICHITA        PTCLDY    74  69  85 NE3       29.99S
OMAHA          PTCLDY    62  59  90 N3        30.02S
LINCOLN        CLEAR     63  61  93 CALM      30.03F
FALLS CITY     CLEAR     61  61 100 CALM      30.01S
LAMONI         MOCLDY    63  62  97 NW5       30.01S
DES MOINES     CLOUDY    68  65  90 N6        29.99S

$$





USA.gov is the U.S. government's official web portal to all federal, state and local government web resources and services.